Flag for France Weather past 2 weeks in Auxerre, France

Now
55 °F

Mostly cloudy.


Feels Like: 55 °F
Forecast: 42 / 56 °F
Wind: No wind

Location: Troyes Airport

Current Time: Apr 27, 2015 at 12:07:24 AM

Latest Report: Apr 26, 2015 at 11:30 PM


Visibility: N/A

Pressure: 29.62 "Hg

Humidity: 100%

Dew point: 55 °F

Location of AuxerreLocation

Historic Weather in Auxerre — Graph

°F

Auxerre temperature yesterday

Maximum temperature yesterday: 70 °F (at 3:30 PM)
Minimum temperature yesterday: 46 °F (at 7:00 AM)
Average temperature yesterday: 58 °F

Past Weeks' High & Low Weather Summary

 TemperatureHumidityPressure
High81 °F (Apr 15, 5:00 PM)100% (Apr 11, 10:00 PM)30.51 "Hg (Apr 11, 10:00 PM)
Low32 °F (Apr 19, 7:00 AM)23% (Apr 22, 4:30 PM)29.62 "Hg (Apr 26, 4:00 PM)
Average56 °F68%30.11 "Hg
* Reported Apr 11 10:00 PM — Apr 26 10:30 PM, Auxerre, Weather by CustomWeather, © 2015

Note: Actual official high and low records may vary slightly from our data, if they occured in-between our weather recording intervals... More about our weather records

Advertising

Auxerre weather history for previous 24 hours

 ConditionsComfort  
Time TempWeatherWind HumidityBarometerVisibility
10:30 PM
Sun, Apr 26
57 °FLight rain. Overcast.3 mph94%29.65 "HgN/A
10:00 PM57 °FCool.5 mph94%29.65 "HgN/A
9:30 PM57 °FLight rain. Cloudy.3 mph94%29.65 "Hg6 mi
9:00 PM57 °FLight rain. Clear.3 mph94%29.62 "HgN/A
8:30 PM57 °FClear.3 mph94%29.62 "HgN/A
8:00 PM57 °FClear.5 mph94%29.62 "HgN/A
7:30 PM59 °FClear.6 mph88%29.62 "HgN/A
7:00 PM59 °FPartly sunny.5 mph88%29.62 "HgN/A
6:30 PM57 °FBroken clouds.6 mph94%29.62 "HgN/A
6:00 PM57 °FThundershowers. Partly sunny.9 mph94%29.62 "HgN/A
5:30 PM57 °FHeavy rain. Fog.10 mph94%29.65 "Hg3 mi
5:00 PM63 °FStrong thunderstorms. Fog.6 mph83%29.62 "Hg1 mi
4:30 PM64 °FThunderstorms. Partly sunny.6 mph73%29.62 "HgN/A
4:00 PM68 °FPartly sunny.9 mph60%29.62 "HgN/A
3:30 PM70 °FScattered clouds.6 mph60%29.65 "HgN/A
3:00 PM66 °FScattered clouds.5 mph68%29.68 "HgN/A
2:30 PM66 °FPartly sunny.5 mph68%29.68 "HgN/A
2:00 PM66 °FScattered clouds.5 mph68%29.71 "HgN/A
1:30 PM66 °FClear.5 mph68%29.71 "HgN/A
1:00 PM64 °FClear.3 mph78%29.74 "HgN/A
12:30 PM64 °FClear.5 mph73%29.74 "HgN/A
12:00 PM64 °FClear.5 mph73%29.74 "HgN/A
11:30 AM63 °FClear.7 mph77%29.74 "HgN/A
11:00 AM63 °FClear.5 mph77%29.77 "HgN/A
10:30 AM63 °FClear.2 mph77%29.77 "HgN/A
10:00 AM63 °FClear.No wind73%29.77 "HgN/A
9:30 AM59 °FClear.2 mph82%29.77 "HgN/A
9:00 AM57 °FClear.6 mph88%29.77 "HgN/A
8:30 AM54 °FClear.2 mph100%29.80 "HgN/A
8:00 AM52 °FClear.3 mph100%29.80 "HgN/A
7:30 AM50 °FClear.2 mph100%29.80 "Hg5 mi
7:00 AM46 °FFog.3 mph93%29.80 "Hg0 mi
6:30 AM50 °FClear.2 mph94%29.80 "HgN/A
6:00 AM50 °FClear.3 mph100%29.80 "HgN/A
5:30 AM52 °FClear.5 mph94%29.80 "HgN/A
5:00 AM54 °FClear.3 mph94%29.80 "HgN/A
4:30 AM54 °FClear.5 mph94%29.80 "HgN/A
4:00 AM52 °FClear.3 mph94%29.80 "HgN/A
3:30 AM54 °FPassing clouds.7 mph94%29.80 "HgN/A
3:00 AM54 °FPassing clouds.8 mph94%29.80 "HgN/A
2:30 AM54 °FPassing clouds.7 mph94%29.83 "HgN/A
2:00 AM55 °FPartly cloudy.3 mph94%29.83 "HgN/A
1:30 AM55 °FMostly cloudy.1 mph94%29.83 "HgN/A
1:00 AM55 °FMostly cloudy.3 mph94%29.83 "HgN/A
12:30 AM55 °FPartly cloudy.1 mph94%29.86 "HgN/A
12:00 AM57 °FPassing clouds.7 mph88%29.86 "HgN/A
Weather by CustomWeather, © 2015

See weather overviewHow to use our weather pages